Miscellaneous Local Product
Issued by NWS North Platte, NE

Home | Current Version | Previous Version | Text Only | Print | Product List | Glossary On
Versions: 1 2 3 4 5 6 7 8 9 10 11 12 13 14 15 16 17 18 19 20 21 22 23 24 25 26 27 28 29 30 31 32 33 34 35 36 37 38 39 40 41 42 43 44 45 46 47 48 49 50
317
AXUS43 KLBF 210910
MISLBF


WESTERN AND NORTH CENTRAL NEBRASKA HOURLY WEATHER ROUNDUP
NATIONAL WEATHER SERVICE NORTH PLATTE NE
400 AM CDT FRI JUL 21 2017

NOTE: "FAIR" INDICATES FEW OR NO CLOUDS BELOW 12,000 FEET WITH NO
SIGNIFICANT WEATHER AND/OR OBSTRUCTIONS TO VISIBILITY.

NOTE: STATIONS NOT REPORTING VARIABLES SUCH AS SKY/WEATHER OR
PRESSURE ARE PROVIDED BY RAWS AND APRS NETWORKS AND ARE NOT UNDER
NATIONAL WEATHER SERVICE QUALITY CONTROL.

...OBSERVATIONS IN AND NEAR THE EASTERN PANHANDLE OF NEBRASKA...

CITY           SKY/WX    TMP DP  RH WIND       PRES   REMARKS
PINE RIDGE     CLOUDY    70  67  90 E3        29.88F
GORDON         FAIR      73  63  69 NW9       29.91S
CHADRON        CLOUDY    70  61  73 N3        29.88F
ALLIANCE       CLOUDY    69  58  67 CALM      29.94F
SIDNEY         PTCLDY    73  57  57 NW10      30.02F
CRESCENT LAKE    N/A     74  62  66 NW6G15      N/A
$$

...OBSERVATIONS IN NORTHERN NEBRASKA AND FAR SOUTHERN SOUTH DAKOTA...

CITY           SKY/WX    TMP DP  RH WIND       PRES   REMARKS
WINNER         FAIR      77  74  90 E10       29.84S
VALENTINE      CLOUDY    76  70  82 CALM      29.85F
THEDFORD       PTCLDY    72  71  97 CALM      29.87S FOG
AINSWORTH      CLOUDY    74  74 100 SE3       29.83F FOG
O`NEILL        CLOUDY    77  73  87 SE9       29.81F
ORD            PTCLDY    75  67  76 SE7       29.81F
BROKEN BOW       N/A     76  63  64 S8        29.84F
VALENTINE NWR    N/A     71  70  97 CALM        N/A
HALSEY           N/A     72  72 100 CALM        N/A
BUTTE            N/A     73  70  90 NE10        N/A
CHAMBERS         N/A     76  72  88 CALM        N/A
EWING            N/A     76  72  87 E3          N/A
$$

...OBSERVATIONS IN SOUTHWEST NEBRASKA AND FAR NORTHEAST COLORADO...

CITY           SKY/WX    TMP DP  RH WIND       PRES   REMARKS
HOLYOKE        FAIR      72  66  83 W10       29.96R
IMPERIAL       PTCLDY    71  66  84 S5        29.90F
OGALLALA       MOCLDY    71  69  91 W3        29.90S
NORTH PLATTE   CLOUDY    71  68  90 NW5       29.86S
MCCOOK         CLOUDY    77  59  53 S9        29.86F
LEXINGTON      CLEAR     78  60  54 SW8       29.85S
STAPLETON        N/A     71  69  94 CALM        N/A
GOTHENBURG       N/A     76  59  55 CALM        N/A
CALLAWAY         N/A     72  69  90 S8          N/A
$$

...OBSERVATIONS IN CENTRAL LINCOLN COUNTY AREA...

CITY           SKY/WX    TMP DP  RH WIND       PRES   REMARKS
N.P. AIRPORT   CLOUDY    71  68  90 NW5       29.86S
N.P. DOWNTOWN    N/A     74  68  80 CALM        N/A
N.P. SOUTHEAST   N/A     75  67  76 CALM        N/A
N.P. HILLCREST   N/A     75  69  82 SW3         N/A
$$

...SOME OBSERVATIONS FROM AROUND THE REGION...

CITY           SKY/WX    TMP DP  RH WIND       PRES   REMARKS
DENVER         CLOUDY    71  51  49 CALM      30.08F
LIMON          CLOUDY    64  57  78 N5        30.09F
ASPEN          CLOUDY    56  50  80 CALM      30.35S
LARAMIE        CLOUDY    54  52  93 S3        30.27F
CASPER         CLOUDY    68  52  56 SW16      30.07S
CHEYENNE       CLOUDY    66  53  63 W13       30.17F
SCOTTSBLUFF    MOCLDY    71  57  61 W6        29.98F
GRAND ISLAND   CLEAR     77  67  71 S13       29.86F
OMAHA          CLOUDY    84  71  65 S14       29.87F
SIOUX FALLS    MOCLDY    76  74  93 E6        29.85F
RAPID CITY     CLOUDY    65  63  93 NW7       29.91F
BISMARCK       PTCLDY    69  63  81 E3        29.79F
KANSAS CITY    CLEAR     80  73  79 SW10      29.94F
HILL CITY      CLEAR     81  59  47 S15       29.88F
WICHITA        CLEAR     79  70  74 S9        29.96S
DODGE CITY     CLEAR     78  60  53 S15       29.97F
OKLAHOMA CITY  PTCLDY    78  69  73 S10       30.00S
DALLAS         CLEAR     84  72  67 S8        29.98F
AMARILLO       CLEAR     73  57  57 S12       30.08F
$$




USA.gov is the U.S. government's official web portal to all federal, state and local government web resources and services.